Voltar ao catálogo

STARLINK-38082

AtivoComunicaçõesSSO
NORAD 69993·PAYLOAD·🇺🇸 United States

Lançado Jul 11, 2026 de Vandenberg Space Force Base

Loading…

Próximas Passagens (próximas 24 horas)

TLE

AtualizadoSource: CelesTrak SupGP

Época: Sep 15, 2026, 03:34 UTC

1 69993C 26159U   26258.14909722 -.02677200  00000+0 -46430-1 0  2587
2 69993  97.2850  99.9198 0002203  87.9250 104.1044 15.52275702    13

Acompanhe STARLINK-38082 em tempo real com AllMySat

Download on the App Store